DB0MAK-13 Weather Reports


time (UTC)temp
C
wind
direction
speed
KPH
gust
KPH
rain 1hr
cm
rain 24hr
cm
rain mn
cm
humidity
%
barometer
mb
20260506092607 14 240 4.8 19.3 0.00 0.81 0.00 75 1005.6
20260506092404 14 241 6.4 19.3 0.00 0.81 0.00 77 1005.7
20260506091909 13 206 4.8 12.9 0.00 0.81 0.00 77 1005.7
20260506091404 13 202 1.6 17.7 0.00 0.81 0.00 78 1005.6
20260506091207 13 214 4.8 17.7 0.00 0.81 0.00 78 1005.6
20260506090404 13 213 4.8 12.9 0.00 0.81 0.00 78 1005.7
20260506085807 13 0 0.0 9.7 0.00 0.81 0.00 78 1005.7
20260506085404 13 206 1.6 9.7 0.00 0.81 0.00 80 1005.7
20260506084405 13 145 1.6 12.9 0.00 0.81 0.00 80 1005.7
20260506083404 13 209 4.8 19.3 0.00 0.81 0.00 82 1005.7
20260506083007 12 183 9.7 19.3 0.00 0.81 0.00 81 1005.7
20260506082404 12 196 1.6 19.3 0.00 0.81 0.00 82 1005.7
20260506082307 12 203 1.6 19.3 0.00 0.81 0.00 82 1005.7
20260506081607 12 235 6.4 19.3 0.00 0.81 0.00 81 1005.6
20260506081404 12 237 6.4 19.3 0.00 0.81 0.00 82 1005.6
20260506080909 12 179 4.8 14.5 0.00 0.81 0.00 82 1005.6
20260506080404 12 203 9.7 14.5 0.00 0.81 0.00 81 1005.6
20260506080209 12 175 6.4 14.5 0.00 0.81 0.00 81 1005.5
20260506073404 12 233 9.7 25.7 0.00 0.81 0.00 82 1005.2
20260506072709 12 195 1.6 19.3 0.00 0.81 0.00 84 1005.2
20260506072404 12 209 9.7 19.3 0.00 0.81 0.00 83 1005.2
20260506072009 12 247 6.4 14.5 0.00 0.81 0.00 83 1005.2
20260506071404 12 177 6.4 22.5 0.00 0.81 0.00 84 1005.2
20260506070405 12 247 1.6 22.5 0.00 0.81 0.00 84 1005.1
20260506062404 11 220 4.8 14.5 0.00 0.81 0.00 88 1005.2
20260506061707 11 197 1.6 9.7 0.00 0.81 0.00 88 1005.2
20260506061404 11 226 1.6 17.7 0.00 0.81 0.00 88 1005.4
20260506061007 11 209 1.6 17.7 0.00 0.81 0.00 89 1005.4
20260506060404 11 204 4.8 12.9 0.00 0.81 0.00 88 1005.4
20260506060307 11 192 1.6 12.9 0.00 0.81 0.00 88 1005.4
20260506051404 11 241 6.4 27.4 0.00 0.81 0.00 89 1005.4
20260506050707 11 237 14.5 27.4 0.00 0.81 0.00 89 1005.2
20260506050404 11 247 12.9 25.7 0.00 0.81 0.00 90 1005.2
20260506044607 11 249 6.4 25.7 0.00 0.81 0.00 91 1005.2
20260506044404 11 243 6.4 25.7 0.00 0.81 0.00 91 1005.4
20260506043907 11 237 12.9 30.6 0.00 0.81 0.00 92 1005.2
20260506043404 11 240 14.5 30.6 0.00 0.81 0.00 92 1005.1
20260506043207 11 250 6.4 19.3 0.00 0.81 0.00 92 1005.2
20260506042507 11 242 9.7 25.7 0.00 0.81 0.00 92 1005.1
20260506042404 11 243 9.7 25.7 0.00 0.81 0.00 92 1005.1
20260506041807 11 241 12.9 30.6 0.00 0.81 0.00 92 1005.1
20260506041404 11 246 9.7 30.6 0.00 0.81 0.00 92 1005.0
20260506041107 11 245 9.7 30.6 0.00 0.81 0.00 92 1004.9
20260506040404 11 230 6.4 22.5 0.00 0.81 0.00 92 1004.9
20260506035404 11 238 4.8 19.3 0.00 0.81 0.00 92 1004.9
20260506035009 11 212 4.8 19.3 0.00 0.81 0.00 92 1004.9
20260506034404 11 212 4.8 12.9 0.00 0.81 0.00 92 1004.7
20260506034307 11 212 4.8 12.9 0.00 0.81 0.00 92 1004.9
20260506033607 11 214 1.6 12.9 0.00 0.81 0.00 92 1005.0
20260506033404 11 219 1.6 12.9 0.00 0.81 0.00 92 1005.0
20260506032404 11 247 4.8 14.5 0.00 0.81 0.00 92 1005.0
20260506032207 11 0 0.0 14.5 0.00 0.81 0.00 91 1005.0
20260506031507 11 0 0.0 17.7 0.00 0.81 0.00 91 1005.1
20260506031404 11 217 1.6 17.7 0.00 0.81 0.00 91 1005.0
20260506030807 11 228 4.8 17.7 0.00 0.81 0.00 91 1004.9
20260506030404 11 200 4.8 17.7 0.00 0.81 0.00 91 1005.0
20260506030107 11 201 4.8 19.3 0.00 0.81 0.00 91 1004.9
20260506025404 11 205 6.4 19.3 0.00 0.81 0.00 91 1004.9
20260506024707 11 206 6.4 17.7 0.00 0.81 0.00 91 1004.9
20260506024404 11 210 1.6 17.7 0.00 0.81 0.00 91 1004.9
20260506023404 11 214 1.6 17.7 0.00 0.81 0.00 91 1004.9
20260506023309 11 209 1.6 17.7 0.00 0.81 0.00 91 1005.0
20260506022607 11 219 4.8 12.9 0.00 0.81 0.00 91 1005.2
20260506022404 11 224 1.6 12.9 0.00 0.81 0.00 91 1005.1
20260506021907 11 231 4.8 19.3 0.00 0.81 0.00 91 1005.2
20260506021404 11 208 1.6 19.3 0.00 0.81 0.00 91 1005.2
20260506021209 11 219 6.4 19.3 0.00 0.81 0.00 91 1005.2
20260506020507 11 208 1.6 22.5 0.00 0.81 0.00 91 1005.2
20260506020404 11 0 0.0 22.5 0.00 0.81 0.00 92 1005.2
20260506015807 11 201 9.7 22.5 0.00 0.81 0.00 91 1005.0
20260506015404 11 192 9.7 19.3 0.00 0.81 0.00 92 1005.1
20260506015107 11 199 9.7 19.3 0.00 0.81 0.00 92 1005.1
20260506014404 11 210 4.8 17.7 0.00 0.81 0.00 92 1005.0
20260506013404 11 220 1.6 19.3 0.00 0.81 0.00 92 1005.1
20260506013007 11 221 1.6 19.3 0.00 0.81 0.00 92 1005.1
20260506012404 11 213 6.4 14.5 0.00 0.81 0.00 92 1005.1
20260506011607 11 217 1.6 19.3 0.00 0.81 0.00 92 1005.1
20260506011404 11 224 1.6 19.3 0.00 0.81 0.00 92 1005.1
20260506010907 11 217 6.4 19.3 0.00 0.81 0.00 91 1005.2
20260506010404 11 205 1.6 9.7 0.00 0.81 0.00 91 1005.2
20260506010207 11 219 4.8 9.7 0.00 0.81 0.00 91 1005.2
20260506005507 11 201 1.6 19.3 0.00 0.81 0.00 92 1005.2
20260506005404 11 209 1.6 19.3 0.00 0.81 0.00 91 1005.2
20260506004809 11 241 1.6 9.7 0.00 0.81 0.00 92 1005.2
20260506004404 11 234 4.8 9.7 0.00 0.81 0.00 91 1005.2
20260506004107 11 225 1.6 9.7 0.00 0.81 0.00 91 1005.2
20260506003404 11 227 4.8 9.7 0.00 0.81 0.00 91 1005.2
20260506002707 11 227 4.8 19.3 0.00 0.81 0.00 91 1005.4
20260506002404 11 220 12.9 19.3 0.00 0.81 0.00 92 1005.5
20260506002007 11 225 6.4 25.7 0.00 0.81 0.00 92 1005.5
20260506001404 11 217 12.9 25.7 0.00 0.81 0.00 92 1005.5
20260506001309 11 217 9.7 25.7 0.00 0.81 0.00 92 1005.6
20260506000404 11 208 4.8 9.7 0.00 0.81 0.00 92 1005.5
20260505235907 11 0 0.0 9.7 0.00 0.81 0.00 92 1005.6
20260505235404 11 228 1.6 12.9 0.00 0.81 0.00 92 1005.6
20260505235207 11 0 0.0 17.7 0.00 0.81 0.00 92 1005.6
20260505234404 11 246 6.4 17.7 0.00 0.81 0.00 92 1005.6
20260505233809 11 233 4.8 12.9 0.00 0.81 0.00 92 1005.7
20260505233404 11 242 4.8 12.9 0.00 0.81 0.00 92 1005.7
20260505233107 11 251 1.6 12.9 0.00 0.81 0.00 92 1005.7
20260505232404 11 216 4.8 12.9 0.00 0.81 0.00 93 1005.6
20260505231707 11 224 1.6 12.9 0.00 0.81 0.00 93 1005.6
20260505231404 11 231 1.6 12.9 0.00 0.81 0.00 93 1005.6
20260505231007 11 0 0.0 9.7 0.00 0.81 0.00 93 1005.6
20260505230404 11 259 4.8 9.7 0.00 0.81 0.00 93 1005.5
20260505230309 11 243 1.6 9.7 0.00 0.81 0.00 93 1005.6
20260505225609 11 216 1.6 6.4 0.00 0.81 0.00 93 1005.6
20260505225404 11 0 0.0 9.7 0.00 0.81 0.00 93 1005.6
20260505224404 11 0 0.0 4.8 0.00 0.81 0.00 93 1005.6
20260505224209 11 0 0.0 4.8 0.00 0.81 0.00 93 1005.5
20260505223507 10 0 0.0 1.6 0.00 0.81 0.00 93 1005.6
20260505223404 10 0 0.0 1.6 0.00 0.81 0.00 93 1005.5
20260505222809 10 0 0.0 1.6 0.00 0.81 0.00 93 1005.6
20260505222404 10 0 0.0 1.6 0.00 0.81 0.00 93 1005.5
20260505222109 10 0 0.0 1.6 0.00 0.81 0.00 93 1005.5
20260505221404 10 0 0.0 0.0 0.00 0.81 0.00 93 1005.5
20260505220707 10 0 0.0 1.6 0.00 0.81 0.00 93 1005.5
20260505220404 10 0 0.0 1.6 0.00 0.81 0.00 93 1005.6
20260505220009 10 0 0.0 1.6 0.00 0.81 0.00 93 1005.7
20260505215404 10 0 0.0 4.8 0.00 0.81 0.00 93 1005.6
20260505214607 10 0 0.0 4.8 0.00 0.81 0.00 93 1005.7
20260505214404 10 0 0.0 4.8 0.00 0.81 0.00 93 1005.7
20260505213907 10 0 0.0 6.4 0.00 0.81 0.00 93 1005.7
20260505213404 10 0 0.0 6.4 0.00 0.81 0.00 93 1005.7
20260505212509 10 244 1.6 6.4 0.00 0.81 0.00 93 1005.9
20260505212404 10 297 1.6 6.4 0.00 0.81 0.00 93 1005.9
20260505211807 10 0 0.0 4.8 0.00 0.81 0.00 93 1005.7
20260505211404 10 0 0.0 4.8 0.00 0.81 0.00 93 1005.9
20260505211107 10 0 0.0 0.0 0.00 0.81 0.00 93 1006.0
20260505210404 10 0 0.0 1.6 0.00 0.81 0.00 93 1005.9
20260505205707 10 0 0.0 1.6 0.00 0.81 0.00 92 1005.7
20260505205404 11 0 0.0 4.8 0.00 0.81 0.00 92 1005.7
20260505205009 11 0 0.0 4.8 0.00 0.81 0.00 92 1005.9
20260505204404 11 0 0.0 4.8 0.00 0.81 0.00 92 1005.7
20260505204309 11 0 0.0 4.8 0.00 0.81 0.00 92 1005.6
20260505203609 11 0 0.0 1.6 0.00 0.81 0.00 92 1005.7
20260505203404 11 0 0.0 1.6 0.00 0.81 0.00 92 1005.6
20260505202404 11 0 0.0 1.6 0.00 0.81 0.00 91 1005.6
20260505202210 11 0 0.0 1.6 0.00 0.81 0.00 91 1005.7
20260505201404 11 0 0.0 0.0 0.00 0.81 0.00 91 1005.5
20260505200404 11 0 0.0 1.6 0.00 0.81 0.00 91 1005.4
20260505195404 11 0 0.0 1.6 0.00 0.81 0.00 91 1005.0
20260505194404 11 0 0.0 4.8 0.00 0.81 0.00 90 1005.0
20260505194009 11 0 0.0 6.4 0.00 0.81 0.00 90 1004.9
20260505193404 11 0 0.0 9.7 0.00 0.81 0.00 90 1004.9
20260505193309 11 289 1.6 9.7 0.00 0.81 0.00 90 1004.7
20260505192404 11 0 0.0 25.7 0.00 0.81 0.00 90 1004.7
20260505191909 11 304 1.6 22.5 0.00 0.81 0.00 90 1004.7
20260505191404 11 317 6.4 25.7 0.00 0.81 0.00 90 1004.6
20260505191209 11 307 9.7 25.7 0.03 0.81 0.00 90 1004.7
20260505190509 11 313 6.4 25.7 0.05 0.81 0.00 90 1004.7
20260505190405 11 318 6.4 30.6 0.05 0.81 0.00 90 1004.7
20260505185404 11 308 9.7 22.5 0.23 0.81 0.00 89 1004.6
20260505185109 11 314 1.6 25.7 0.28 0.81 0.00 89 1004.7
20260505184404 11 296 9.7 25.7 0.53 0.81 0.00 89 1005.1
20260505183709 11 0 0.0 9.7 0.79 0.81 0.00 89 1005.1
20260505183404 11 0 0.0 9.7 0.81 0.81 0.00 89 1005.2
20260505182404 11 0 0.0 9.7 0.79 0.79 0.00 89 1005.4
20260505181607 12 0 0.0 32.2 0.79 0.79 0.00 88 1005.1
20260505181404 12 274 1.6 32.2 0.79 0.79 0.00 88 1005.2
20260505180404 12 264 17.7 27.4 0.71 0.71 0.00 87 1005.2
20260505180209 12 263 17.7 56.3 0.71 0.71 0.00 86 1005.2
20260505175509 12 274 19.3 56.3 0.58 0.58 0.00 85 1005.2
20260505175404 12 270 17.7 48.3 0.56 0.56 0.00 85 1005.2
20260505174809 12 277 27.4 48.3 0.41 0.41 0.00 83 1005.2
20260505174404 13 251 25.7 51.5 0.25 0.25 0.00 81 1005.2
20260505173404 15 224 19.3 59.5 0.00 0.00 0.00 72 1005.2
20260505172707 16 233 32.2 53.1 0.00 0.00 0.00 65 1005.0
20260505172404 17 265 4.8 12.9 0.00 0.00 0.00 67 1004.5
20260505171404 17 0 0.0 17.7 0.00 0.00 0.00 67 1003.7
20260505171309 17 323 1.6 17.7 0.00 0.00 0.00 67 1003.7
20260505170609 17 324 6.4 17.7 0.00 0.00 0.00 67 1003.7
20260505170404 17 341 1.6 12.9 0.00 0.00 0.00 67 1003.7
20260505165909 17 0 0.0 14.5 0.00 0.00 0.00 67 1003.6
20260505165404 17 26 4.8 14.5 0.00 0.00 0.00 66 1003.7
20260505165207 17 20 1.6 14.5 0.00 0.00 0.00 66 1003.7
20260505164509 17 24 4.8 19.3 0.00 0.00 0.00 66 1003.7
20260505164404 17 32 4.8 19.3 0.00 0.00 0.00 67 1003.7
20260505163807 17 24 4.8 19.3 0.00 0.00 0.00 67 1003.7
20260505163404 17 25 1.6 27.4 0.00 0.00 0.00 68 1003.7
20260505163107 17 21 1.6 27.4 0.00 0.00 0.00 67 1003.7
20260505162404 17 9 6.4 22.5 0.00 0.00 0.00 66 1004.0
20260505161404 18 38 12.9 38.6 0.00 0.00 0.00 66 1004.1
20260505161007 18 36 12.9 38.6 0.00 0.00 0.00 66 1004.2
20260505160404 18 29 6.4 30.6 0.00 0.00 0.00 66 1004.1
20260505160307 18 19 12.9 30.6 0.00 0.00 0.00 66 1004.2
20260505152809 18 20 4.8 19.3 0.00 0.00 0.00 67 1004.4
20260505152404 18 23 6.4 22.5 0.00 0.00 0.00 67 1004.4
20260505152109 18 33 6.4 27.4 0.00 0.00 0.00 68 1004.5
20260505151404 18 24 4.8 27.4 0.00 0.00 0.00 68 1004.6
20260505150404 18 33 9.7 35.4 0.00 0.00 0.00 66 1004.6
20260505140404 18 341 6.4 25.7 0.00 0.00 0.00 62 1004.7
20260505130107 19 339 4.8 30.6 0.00 0.00 0.00 59 1005.2
20260505124707 20 19 6.4 22.5 0.00 0.00 0.00 58 1005.2
20260505124404 20 7 6.4 27.4 0.00 0.00 0.00 58 1005.2
20260505124007 20 322 1.6 27.4 0.00 0.00 0.00 59 1005.2
20260505123404 20 325 9.7 30.6 0.00 0.00 0.00 58 1005.2
20260505122607 19 321 14.5 27.4 0.00 0.00 0.00 57 1005.2
20260505122404 19 328 6.4 25.7 0.00 0.00 0.00 58 1005.2
20260505121907 19 324 9.7 35.4 0.00 0.00 0.00 59 1005.2
20260505121404 19 329 12.9 35.4 0.00 0.00 0.00 58 1005.2
20260505121207 19 325 14.5 30.6 0.00 0.00 0.00 59 1005.2
20260505120507 20 303 9.7 22.5 0.00 0.00 0.00 59 1005.2
20260505120405 20 312 6.4 35.4 0.00 0.00 0.00 60 1005.2
20260505115809 20 328 1.6 35.4 0.00 0.00 0.00 58 1005.4
20260505115404 20 323 17.7 30.6 0.00 0.00 0.00 58 1005.4
20260505115107 20 319 14.5 35.4 0.00 0.00 0.00 58 1005.2
20260505114404 20 318 22.5 35.4 0.00 0.00 0.00 56 1005.5
20260505113707 21 311 6.4 19.3 0.00 0.00 0.00 55 1005.5
20260505113404 20 27 1.6 17.7 0.00 0.00 0.00 52 1005.5
20260505113009 20 84 1.6 17.7 0.00 0.00 0.00 51 1005.5
20260505112404 20 43 4.8 19.3 0.00 0.00 0.00 54 1005.6
20260505112307 20 53 4.8 19.3 0.00 0.00 0.00 55 1005.6
20260505111404 20 6 1.6 17.7 0.00 0.00 0.00 58 1005.7
20260505110907 19 0 0.0 25.7 0.00 0.00 0.00 59 1005.7
20260505110404 19 24 4.8 25.7 0.00 0.00 0.00 58 1005.6
20260505110207 20 48 9.7 25.7 0.00 0.00 0.00 59 1005.7
20260505102007 20 80 4.8 22.5 0.00 0.00 0.00 55 1006.0
20260505101405 20 84 6.4 17.7 0.00 0.00 0.00 56 1006.2
20260505101307 20 68 6.4 17.7 0.00 0.00 0.00 55 1006.2
20260505100607 19 73 9.7 19.3 0.00 0.00 0.00 56 1006.2
20260505100404 19 70 9.7 19.3 0.00 0.00 0.00 56 1006.2
20260505095404 19 68 14.5 27.4 0.00 0.00 0.00 58 1006.4
20260505095207 19 81 6.4 27.4 0.00 0.00 0.00 58 1006.4
20260505094507 19 0 0.0 14.5 0.00 0.00 0.00 59 1006.6
20260505094404 19 0 0.0 14.5 0.00 0.00 0.00 59 1006.5
20260505093807 18 71 9.7 22.5 0.00 0.00 0.00 58 1006.7
20260505093404 18 81 6.4 22.5 0.00 0.00 0.00 59 1006.7